This demonstration page uses our WeatherBlox Daily Observations layout. Learn more.

41.55636, -103.73856

Hourly Observations for May 30, 2015

Temp ( °F °C ) Dew Point ( °F °C ) Humidity (%) Winds ( mph kmh ) Pressure ( in mb ) Visibility ( mi km ) Precip ( " mm )
12:53 am 00:53 Cloudy 48 9 45 7 87 87 NE 7 11 30.27 1025 10 16.09344 0 0
1:26 am 01:26 Cloudy 48 9 45 7 87 87 E 6 9 30.27 1025 10 16.09344 0 0
1:37 am 01:37 Cloudy 46 8 45 7 93 93 E 7 11 30.3 1026 9 14.484096 0 0
1:53 am 01:53 Cloudy 46 8 45 7 93 93 E 8 13 30.3 1026 7 11.265408 0 0
2:46 am 02:46 Cloudy 46 8 45 7 93 93 SE 7 11 30.3 1026 9 14.484096 0 0
2:53 am 02:53 Cloudy 46 8 45 7 93 93 SE 7 11 30.3 1026 8 12.874752 0 0
3:42 am 03:42 Cloudy 46 8 46 8 100 100 SSW 6 9 30.3 1026 8 12.874752 0 0
3:53 am 03:53 Cloudy 46 8 46 8 100 100 S 5 7 30.3 1026 9 14.484096 0 0
4:53 am 04:53 Cloudy 46 8 45 7 93 93 ESE 5 7 30.3 1026 10 16.09344 0 0
5:53 am 05:53 Cloudy 48 9 46 8 94 94 SE 5 7 30.27 1025 9 14.484096 0 0
6:53 am 06:53 Cloudy 48 9 46 8 94 94 ESE 7 11 30.27 1025 9 14.484096 0 0
7:28 am 07:28 Cloudy 48 9 46 8 94 94 ESE 8 13 30.27 1025 10 16.09344 0 0
7:53 am 07:53 Cloudy 50 10 46 8 88 88 ESE 10 17 30.27 1025 10 16.09344 0 0
8:06 am 08:06 Cloudy 50 10 46 8 88 88 ESE 9 15 30.27 1025 10 16.09344 0 0
8:51 am 08:51 Partly Cloudy 54 12 46 8 77 77 SE 13 20 30.21 1023 10 16.09344 0 0
8:53 am 08:53 Partly Cloudy 54 12 46 8 77 77 SE 13 20 30.21 1023 10 16.09344 0 0
9:19 am 09:19 Mostly Cloudy 55 13 46 8 72 72 SE 12 19 30.18 1022 10 16.09344 0 0
9:41 am 09:41 Cloudy 54 12 46 8 77 77 ESE 12 19 30.21 1023 10 16.09344 0 0
9:53 am 09:53 Cloudy 54 12 48 9 82 82 ESE 12 19 30.21 1023 10 16.09344 0 0
10:53 am 10:53 Mostly Cloudy 57 14 48 9 72 72 ESE 12 19 30.18 1022 10 16.09344 0 0
11:53 am 11:53 Mostly Cloudy 61 16 48 9 63 63 SE 13 20 30.09 1019 10 16.09344 0 0
12:11 pm 12:11 Partly Cloudy 63 17 50 10 64 64 SE 13 20 30.09 1019 10 16.09344 0 0
12:53 pm 12:53 Partly Cloudy 63 17 50 10 64 64 SSE 16 26 30.09 1019 10 16.09344 0 0
1:53 pm 13:53 Sunny 66 19 52 11 60 60 ESE 16 26 30.03 1017 10 16.09344 0 0
2:53 pm 14:53 Sunny 70 21 52 11 53 53 SE 10 17 29.97 1015 10 16.09344 0 0
3:53 pm 15:53 Sunny 70 21 52 11 53 53 SE 16 26 29.97 1015 10 16.09344 0 0
4:53 pm 16:53 Sunny 68 20 50 10 53 53 SE 17 28 29.94 1014 10 16.09344 0 0
5:53 pm 17:53 Sunny 66 19 50 10 56 56 SE 16 26 29.97 1015 10 16.09344 0 0
6:53 pm 18:53 Sunny 66 19 52 11 60 60 SE 12 19 29.97 1015 10 16.09344 0 0
7:53 pm 19:53 undefined 63 17 50 10 64 64 SE 13 20 29.97 1015 10 16.09344 0 0
8:53 pm 20:53 Clear 59 15 50 10 72 72 SE 15 24 30 1016 10 16.09344 0 0
9:53 pm 21:53 Clear 55 13 48 9 77 77 ESE 13 20 30.03 1017 10 16.09344 0 0
10:53 pm 22:53 Clear 54 12 46 8 77 77 ESE 13 20 30.06 1018 10 16.09344 0 0
11:53 pm 23:53 Clear 52 11 46 8 82 82 ESE 12 19 30.06 1018 10 16.09344 0 0

Powered by AerisWeather